[[{"header":{"parameterUnit":"m.s-1","parameterCategory":1,"la1":30.2991,"la2":30.254,"lo1":-89.0895,"lo2":-89.0444,"dy":0.0017,"dx":0.0017,"nx":28,"ny":28,"refTime":"2023-11-02T09:00:00:Z","depth":0,"parameterNumber":2,"parameterNumberName":"U-component_of_WINDS"},"data":[0,0,0,0,0,0,0,0,0,0,0,0,0,0,0,0,0,0,0,0,0,0,0,0,0,0,0,0,0,0,0,0,0,0,0,0,0,0,0,0,0,0,0,0,0,0,0,0,0,0,0,0,0,0,0,0,0,0,-4.8738,-4.8739,0,-4.878,-4.8781,-4.8781,-4.8601,-4.8595,-4.859,-4.8585,-4.8628,-4.8634,-4.864,0,0,0,0,0,0,0,0,0,0,0,0,0,-4.85,-4.8505,-4.8738,-4.8739,-4.8739,-4.878,-4.8781,-4.8782,-4.8602,-4.8595,-4.8589,-4.8583,-4.8626,-4.8633,-4.864,0,0,0,0,0,0,0,0,0,0,0,0,0,-4.8579,-4.8507,-4.8738,-4.8655,-4.8647,-4.878,-4.8781,-4.8782,-4.8603,-4.8595,-4.8587,-4.858,-4.8623,-4.8632,-4.8641,-4.8856,0,0,-4.8669,-4.8673,0,0,0,0,0,0,0,0,-4.8575,-4.8588,-4.8666,-4.8661,-4.8653,-4.8677,-4.8712,-4.8807,-4.8605,-4.862,-4.8585,-4.8576,-4.8651,-4.8657,-4.8682,-4.8858,-4.886,-4.867,-4.8675,-4.8679,-4.8682,0,0,0,0,0,0,0,-4.857,-4.8585,-4.8755,-4.8668,-4.866,-4.8614,-4.8617,-4.8729,-4.8679,-4.8618,-4.8605,-4.8612,-4.8645,-4.8674,-4.8682,-4.8861,-4.867,-4.8678,-4.8683,-4.8687,-4.9213,-4.9222,0,0,0,0,0,0,-4.8575,-4.8582,-4.8753,-4.8756,-4.8594,-4.8625,-4.8628,-4.8677,-4.8678,-4.867,-4.8619,-4.8604,-4.8662,-4.8672,-4.8683,-4.8933,-4.8679,-4.8688,-4.8693,-4.9205,-4.9215,-4.9225,0,0,0,0,0,0,-4.8571,-4.8593,-4.8752,-4.8666,-4.8682,-4.8638,-4.8695,-4.8682,-4.8711,-4.8678,-4.8668,-4.8658,-4.8656,-4.867,-4.8814,-4.8932,-4.8692,-4.87,-4.9195,-4.9208,-4.922,-4.9437,0,0,0,0,0,0,-4.8565,-4.8592,-4.8674,-4.8669,-4.8688,-4.8884,-4.8702,-4.8689,-4.8727,-4.8707,-4.8712,-4.8705,-4.8651,-4.8802,-4.8823,-4.894,-4.8707,-4.9184,-4.9201,-4.9216,-4.9419,-4.9455,-4.9486,0,0,0,0,0,-4.8557,-4.8733,-4.8679,-4.8701,-4.8789,-4.8891,-4.8901,-4.8836,-4.8737,-4.8819,-4.8798,-4.8705,-4.8916,-4.8818,-4.8841,-4.8962,-4.9176,-4.9196,-4.9215,-4.9403,-4.9448,-4.9486,0,0,0,0,0,0,-4.8753,-4.8731,-4.867,-4.8851,-4.8874,-4.886,-4.8961,-4.8886,-4.8937,-4.8917,-4.8833,-4.8836,-4.8994,-4.8993,-4.8884,-4.9169,-4.9029,-4.9054,-4.9165,-4.9207,-4.924,-4.9236,-4.8715,0,0,0,0,0,-4.8818,-4.8903,-4.8878,-4.904,-4.9054,-4.9007,-4.9048,-4.8996,-4.9016,-4.9025,-4.9015,-4.9038,-4.9109,-4.9158,-4.9222,-4.9418,-4.9415,-4.9513,-4.9547,-4.9575,-4.9596,-4.9698,-4.9741,-4.9288,-4.9287,-4.9287,0,0,-4.8951,-4.895,-4.9008,-4.9079,-4.9091,-4.918,-4.9016,-4.9117,-4.9182,-4.904,-4.9175,-4.9169,-4.919,-4.936,-4.9435,-4.9364,-4.9721,-4.9599,-4.9622,-4.9628,-4.9722,-4.9765,-4.9803,-4.9301,-4.9298,-4.9296,0,0,-4.9239,-4.9248,-4.9382,-4.9397,-4.9417,-4.9384,-4.9417,-4.9414,-4.9404,-4.9539,-4.9434,-4.951,-4.9635,-4.9653,-4.9679,-4.9974,-4.989,-4.9997,-5.0174,-5.0274,-5.031,-5.0341,-5.0445,-5.0483,-5.002,-5.002,-5.0021,0,-4.9402,-4.9533,-4.946,-4.9569,-4.9602,-4.9478,-4.9613,-4.9631,-4.9672,-4.9697,-4.9617,-4.977,-4.9776,-4.9948,-5.002,-5.0046,-5.0079,-4.9996,-5.0311,-5.0341,-5.0369,-5.0467,-5.0506,-5.0033,-5.0031,-5.003,-5.0029,0,-4.9731,-4.9824,-4.9929,-4.9971,-5.0017,-5.0138,-5.0083,-5.0138,-5.0082,-5.0057,-5.0195,-5.0197,-5.0258,-5.0295,-5.0242,-5.046,-5.0415,-5.0325,-5.0181,-5.0426,-5.0517,-5.0554,-5.0051,-5.0047,-5.0043,-5.004,0,0,-5.0143,-5.0144,-5.0183,-5.02,-5.0213,-5.0283,-5.0398,-5.0458,-5.0506,-5.0538,-5.0632,-5.074,-5.0656,-5.0685,-5.0633,-5.0721,-5.0953,-5.0619,-5.0618,-5.0679,-5.1192,-5.1259,-5.1303,-5.0898,-5.0905,-5.091,-5.1189,0,-5.0424,-5.0621,-5.0559,-5.0757,-5.0841,-5.0724,-5.0824,-5.0843,-5.0823,-5.089,-5.0867,-5.0945,-5.0829,-5.0846,-5.0928,-5.0907,-5.1054,-5.0886,-5.0983,-5.0987,-5.098,-5.1351,-5.1422,-5.1685,-5.1224,-5.123,-5.1235,0,-5.0778,-5.0824,-5.1031,-5.1029,-5.1062,-5.1153,-5.1202,-5.1268,-5.1287,-5.1266,-5.1299,-5.1228,-5.1339,-5.1198,-5.135,-5.1237,-5.1273,-5.1269,-5.1278,-5.1282,-5.1125,-5.1364,-5.1768,-5.1807,-5.129,-5.1286,-5.1282,0,-5.1056,-5.117,-5.1307,-5.1326,-5.1327,-5.1394,-5.1398,-5.1408,-5.1448,-5.1491,-5.1516,-5.1572,-5.1603,-5.1648,-5.1593,-5.1495,-5.1753,-5.1607,-5.1738,-5.174,-5.1796,-5.1793,-5.2209,-5.1823,-5.1822,-5.1822,-5.1821,0,-5.1375,-5.1506,-5.1432,-5.1517,-5.1659,-5.1587,-5.173,-5.172,-5.1731,-5.1811,-5.1714,-5.1792,-5.1716,-5.1786,-5.1744,-5.1876,-5.1891,-5.1876,-5.1863,-5.1884,-5.1886,-5.1905,-5.1884,-5.1832,-5.183,-5.1828,-5.1826,0,-5.1708,-5.1664,-5.1807,-5.1797,-5.1797,-5.1903,-5.1893,-5.1971,-5.1944,-5.2047,-5.2067,-5.2025,-5.2102,-5.2052,-5.2131,-5.2103,-5.2274,-5.2237,-5.2268,-5.2257,-5.239,-5.2378,-5.2832,-5.2887,-5.2468,-5.2472,-5.2475,0,-5.1914,-5.2011,-5.2012,-5.2059,-5.2069,-5.2146,-5.2186,-5.2118,-5.2164,-5.2192,-5.2266,-5.2335,-5.2387,-5.2516,-5.2492,-5.2552,-5.2514,-5.2669,-5.2522,-5.2539,-5.2514,-5.2508,-5.2516,-5.2698,-5.2703,-5.2707,-5.271,0,-5.2283,-5.2256,-5.2317,-5.2372,-5.2422,-5.2462,-5.2493,-5.2537,-5.2469,-5.2525,-5.2603,-5.2643,-5.2723,-5.2793,-5.2843,-5.2845,-5.2767,-5.2757,-5.279,-5.2811,-5.2824,-5.2817,-5.2347,-5.2746,-5.2743,-5.274,-5.2738,-5.2737,-5.2556,-5.2637,-5.265,-5.2721,-5.2738,-5.277,-5.2842,-5.2824,-5.2888,-5.2947,-5.2904,-5.2996,-5.3011,-5.307,-5.3083,-5.3153,-5.309,-5.3139,-5.315,-5.3163,-5.3181,-5.2815,-5.3163,-5.3161,-5.316,-5.316,-5.3159,0,-5.2918,-5.2921,-5.2987,-5.3034,-5.3091,-5.3012,-5.3043,-5.3095,-5.3178,-5.3198,-5.3251,-5.334,-5.3407,-5.3389,-5.3449,-5.3509,-5.3475,-5.3527,-5.3521,-5.3522,-5.3235,-5.3199,-5.3554,-5.3554,-5.3554,-5.3554,-5.3554,-5.3554,-5.3113,-5.3245,-5.322,-5.3359,-5.336,-5.345,-5.3474,-5.3502,-5.3518,-5.3622,-5.3678,-5.3665,-5.367,-5.3729,-5.3787,-5.378,-5.3806,-5.3871,-5.3851,-5.3582,-5.3543,-5.3506,-5.3472,-5.3878,-5.3878,-5.4132,-5.4134,-5.4136]},{"header":{"parameterUnit":"m.s-1","parameterCategory":1,"la1":30.2991,"la2":30.254,"lo1":-89.0895,"lo2":-89.0444,"dy":0.0017,"dx":0.0017,"nx":28,"ny":28,"refTime":"2023-11-02T09:00:00:Z","depth":0,"parameterNumber":3,"parameterNumberName":"V-component_of_WINDS"},"data":[0,0,0,0,0,0,0,0,0,0,0,0,0,0,0,0,0,0,0,0,0,0,0,0,0,0,0,0,0,0,0,0,0,0,0,0,0,0,0,0,0,0,0,0,0,0,0,0,0,0,0,0,0,0,0,0,0,0,-1.6213,-1.6214,0,-1.6236,-1.6237,-1.6237,-1.6258,-1.6258,-1.6258,-1.6259,-1.628,-1.628,-1.6281,0,0,0,0,0,0,0,0,0,0,0,0,0,-1.6184,-1.6184,-1.6213,-1.6214,-1.6214,-1.6236,-1.6237,-1.6237,-1.6258,-1.6258,-1.6258,-1.6259,-1.628,-1.628,-1.6281,0,0,0,0,0,0,0,0,0,0,0,0,0,-1.62,-1.6184,-1.6213,-1.6227,-1.6228,-1.6236,-1.6237,-1.6237,-1.6258,-1.6258,-1.6258,-1.6259,-1.628,-1.628,-1.6281,-1.6276,0,0,-1.6282,-1.6283,0,0,0,0,0,0,0,0,-1.62,-1.6202,-1.6225,-1.6226,-1.6228,-1.6245,-1.6234,-1.625,-1.6258,-1.6247,-1.6259,-1.6259,-1.6268,-1.6269,-1.6273,-1.6277,-1.6278,-1.6282,-1.6283,-1.6283,-1.6283,0,0,0,0,0,0,0,-1.6198,-1.6201,-1.6222,-1.6225,-1.6227,-1.6231,-1.6234,-1.6237,-1.6255,-1.6248,-1.6249,-1.6252,-1.6269,-1.6272,-1.6274,-1.6279,-1.6282,-1.6283,-1.6283,-1.6283,-1.6278,-1.6278,0,0,0,0,0,0,-1.6195,-1.62,-1.6222,-1.6223,-1.6214,-1.6231,-1.6234,-1.6239,-1.6255,-1.6258,-1.6251,-1.6253,-1.6271,-1.6273,-1.6274,-1.6269,-1.6283,-1.6283,-1.6284,-1.6279,-1.6278,-1.6278,0,0,0,0,0,0,-1.6195,-1.6197,-1.6221,-1.6212,-1.6215,-1.6231,-1.6236,-1.6239,-1.6243,-1.6258,-1.6261,-1.6252,-1.6272,-1.6274,-1.6275,-1.627,-1.6284,-1.6284,-1.6279,-1.6279,-1.6278,-1.6258,0,0,0,0,0,0,-1.6194,-1.6197,-1.6196,-1.6212,-1.6216,-1.6223,-1.6236,-1.6239,-1.6244,-1.6246,-1.6259,-1.6262,-1.6272,-1.6274,-1.6276,-1.6271,-1.6285,-1.628,-1.6279,-1.6278,-1.626,-1.6257,-1.6255,0,0,0,0,0,-1.6193,-1.619,-1.6196,-1.6199,-1.6215,-1.6222,-1.6224,-1.6237,-1.6243,-1.6242,-1.6251,-1.6261,-1.627,-1.6275,-1.6276,-1.6271,-1.628,-1.6279,-1.6278,-1.6261,-1.6258,-1.6255,0,0,0,0,0,0,-1.6174,-1.6192,-1.62,-1.6202,-1.621,-1.6226,-1.6225,-1.6234,-1.624,-1.6241,-1.6256,-1.6259,-1.6259,-1.6265,-1.627,-1.6267,-1.6276,-1.6276,-1.6262,-1.626,-1.6258,-1.6256,-1.6285,0,0,0,0,0,-1.617,-1.6175,-1.619,-1.6191,-1.6195,-1.6209,-1.6212,-1.6221,-1.623,-1.6234,-1.6243,-1.6251,-1.6255,-1.6258,-1.6263,-1.6261,-1.6263,-1.6258,-1.6255,-1.6254,-1.6253,-1.625,-1.6247,-1.6274,-1.6274,-1.6274,0,0,-1.6162,-1.6173,-1.6175,-1.6187,-1.6195,-1.6198,-1.6212,-1.6215,-1.6218,-1.6234,-1.6236,-1.6243,-1.6252,-1.6252,-1.6252,-1.6257,-1.6245,-1.6252,-1.6251,-1.6251,-1.6249,-1.6246,-1.6244,-1.6274,-1.6274,-1.6274,0,0,-1.6149,-1.6158,-1.6159,-1.6166,-1.6177,-1.6186,-1.6186,-1.62,-1.6205,-1.6207,-1.6219,-1.6221,-1.6229,-1.6235,-1.6238,-1.6225,-1.6233,-1.6226,-1.6214,-1.6211,-1.6209,-1.6207,-1.6201,-1.6199,-1.6225,-1.6225,-1.6225,0,-1.6138,-1.6144,-1.6158,-1.616,-1.6165,-1.6179,-1.6179,-1.6185,-1.6197,-1.6199,-1.6205,-1.6213,-1.6221,-1.622,-1.6217,-1.622,-1.6219,-1.6225,-1.6208,-1.6207,-1.6205,-1.6199,-1.6197,-1.6224,-1.6224,-1.6224,-1.6224,0,-1.6129,-1.6133,-1.6132,-1.6143,-1.6147,-1.6148,-1.616,-1.6163,-1.617,-1.6178,-1.6179,-1.6188,-1.6194,-1.6195,-1.6203,-1.6195,-1.6198,-1.6206,-1.6216,-1.6201,-1.6196,-1.6194,-1.6222,-1.6223,-1.6223,-1.6223,0,0,-1.6106,-1.6123,-1.6123,-1.6127,-1.6139,-1.6142,-1.6142,-1.6148,-1.6149,-1.6156,-1.6156,-1.6161,-1.6168,-1.6172,-1.6181,-1.6178,-1.6165,-1.6186,-1.6186,-1.6181,-1.6155,-1.6148,-1.6145,-1.617,-1.617,-1.617,-1.6153,0,-1.6095,-1.6098,-1.6109,-1.6108,-1.6111,-1.6124,-1.6124,-1.613,-1.6137,-1.6139,-1.6147,-1.6149,-1.6159,-1.6161,-1.6159,-1.6167,-1.6159,-1.6168,-1.6169,-1.6169,-1.6166,-1.6143,-1.6137,-1.6121,-1.6152,-1.6151,-1.6151,0,-1.6083,-1.6088,-1.6087,-1.6097,-1.6099,-1.6099,-1.6104,-1.6107,-1.6114,-1.6119,-1.6122,-1.6131,-1.6131,-1.614,-1.6139,-1.6144,-1.6145,-1.6149,-1.6148,-1.6148,-1.6159,-1.6142,-1.6116,-1.6113,-1.6148,-1.6148,-1.6149,0,-1.6065,-1.6072,-1.6072,-1.6075,-1.6087,-1.6087,-1.6091,-1.6099,-1.6101,-1.6105,-1.6106,-1.611,-1.6112,-1.6115,-1.6124,-1.613,-1.6121,-1.6131,-1.6124,-1.6123,-1.6121,-1.6121,-1.6094,-1.6123,-1.6123,-1.6123,-1.6123,0,-1.6051,-1.605,-1.6064,-1.6064,-1.6062,-1.6074,-1.6071,-1.6077,-1.6083,-1.6083,-1.6094,-1.6094,-1.6106,-1.6107,-1.6114,-1.611,-1.6112,-1.6114,-1.6116,-1.6113,-1.6113,-1.6114,-1.6115,-1.6122,-1.6122,-1.6122,-1.6122,0,-1.6031,-1.6041,-1.6041,-1.6052,-1.6054,-1.6052,-1.6061,-1.606,-1.6067,-1.6067,-1.6067,-1.6077,-1.6078,-1.6088,-1.6091,-1.6095,-1.6089,-1.6093,-1.6087,-1.6088,-1.6079,-1.6079,-1.6052,-1.6048,-1.6079,-1.6079,-1.6079,0,-1.6021,-1.6021,-1.603,-1.6031,-1.6035,-1.6037,-1.6039,-1.6049,-1.6051,-1.6057,-1.6055,-1.6057,-1.6059,-1.606,-1.6067,-1.6069,-1.6072,-1.6063,-1.6073,-1.6069,-1.6071,-1.607,-1.607,-1.606,-1.606,-1.606,-1.6059,0,-1.6003,-1.6007,-1.601,-1.6013,-1.6015,-1.6018,-1.6022,-1.6022,-1.6033,-1.6034,-1.6035,-1.6037,-1.6039,-1.604,-1.6043,-1.6046,-1.6054,-1.6056,-1.6054,-1.6051,-1.6046,-1.6047,-1.608,-1.6057,-1.6057,-1.6057,-1.6057,-1.6057,-1.5987,-1.5986,-1.5992,-1.5994,-1.5998,-1.6,-1.6,-1.6006,-1.6007,-1.601,-1.6016,-1.6015,-1.6019,-1.6024,-1.6027,-1.6025,-1.603,-1.6028,-1.6027,-1.6026,-1.6024,-1.6047,-1.6026,-1.6026,-1.6026,-1.6026,-1.6026,0,-1.5968,-1.5972,-1.5974,-1.5978,-1.5979,-1.5986,-1.599,-1.599,-1.5989,-1.5993,-1.5994,-1.5994,-1.5994,-1.6001,-1.6001,-1.5999,-1.6003,-1.5999,-1.5999,-1.5999,-1.602,-1.6021,-1.5996,-1.5996,-1.5996,-1.5996,-1.5996,-1.5996,-1.5958,-1.5956,-1.5961,-1.5959,-1.5963,-1.5963,-1.5964,-1.5966,-1.5969,-1.5968,-1.5968,-1.5972,-1.5976,-1.5977,-1.5977,-1.5979,-1.5978,-1.5973,-1.5976,-1.5995,-1.5998,-1.6001,-1.6002,-1.5973,-1.5973,-1.5955,-1.5955,-1.5954]}]]